| time (UTC) | temp F | wind direction | speed MPH | gust MPH | rain 1hr in | rain 24hr in | rain mn in | humidity % | barometer mb |
| 20260503220207 | 80 | 328 | 3.0 | 7.0 | 0.00 | 0.00 | 0.00 | 40 | 1010.5 |
| 20260503215706 | 81 | 275 | 2.0 | 7.0 | 0.00 | 0.00 | 0.00 | 40 | 1010.5 |
| 20260503215205 | 80 | 51 | 2.0 | 5.0 | 0.00 | 0.00 | 0.00 | 40 | 1010.5 |
| 20260503214704 | 80 | 60 | 2.0 | 5.0 | 0.00 | 0.00 | 0.00 | 40 | 1010.5 |
| 20260503214203 | 80 | 5 | 3.0 | 5.0 | 0.00 | 0.00 | 0.00 | 39 | 1010.5 |
| 20260503213702 | 80 | 52 | 2.0 | 5.0 | 0.00 | 0.00 | 0.00 | 39 | 1010.5 |
| 20260503213201 | 81 | 34 | 3.0 | 6.0 | 0.00 | 0.00 | 0.00 | 40 | 1010.5 |
| 20260503212701 | 80 | 325 | 2.0 | 6.0 | 0.00 | 0.00 | 0.00 | 39 | 1010.5 |
| 20260503212157 | 80 | 293 | 2.0 | 6.0 | 0.00 | 0.00 | 0.00 | 40 | 1010.5 |
| 20260503211656 | 80 | 300 | 3.0 | 6.0 | 0.00 | 0.00 | 0.00 | 40 | 1010.8 |
| 20260503211156 | 79 | 317 | 2.0 | 6.0 | 0.00 | 0.00 | 0.00 | 42 | 1010.8 |
| 20260503210655 | 79 | 32 | 3.0 | 6.0 | 0.00 | 0.00 | 0.00 | 41 | 1010.8 |
| 20260503210154 | 79 | 309 | 2.0 | 6.0 | 0.00 | 0.00 | 0.00 | 41 | 1010.8 |
| 20260503205653 | 79 | 283 | 2.0 | 6.0 | 0.00 | 0.00 | 0.00 | 42 | 1010.8 |
| 20260503205152 | 79 | 264 | 2.0 | 6.0 | 0.00 | 0.00 | 0.00 | 40 | 1010.8 |
| 20260503204620 | 79 | 46 | 1.0 | 6.0 | 0.00 | 0.00 | 0.00 | 41 | 1010.8 |
| 20260503204118 | 79 | 271 | 3.0 | 6.0 | 0.00 | 0.00 | 0.00 | 41 | 1011.2 |
| 20260503203545 | 80 | 27 | 2.0 | 6.0 | 0.00 | 0.00 | 0.00 | 41 | 1011.2 |
| 20260503203044 | 79 | 263 | 2.0 | 6.0 | 0.00 | 0.00 | 0.00 | 41 | 1011.2 |
| 20260503202543 | 78 | 44 | 0.0 | 6.0 | 0.00 | 0.00 | 0.00 | 42 | 1011.2 |
| 20260503202043 | 79 | 273 | 4.0 | 6.0 | 0.00 | 0.00 | 0.00 | 41 | 1011.2 |
| 20260503201510 | 78 | 285 | 0.0 | 7.0 | 0.00 | 0.00 | 0.00 | 42 | 1011.2 |
| 20260503200938 | 78 | 31 | 2.0 | 7.0 | 0.00 | 0.00 | 0.00 | 43 | 1011.5 |
| 20260503200437 | 78 | 260 | 3.0 | 7.0 | 0.00 | 0.00 | 0.00 | 43 | 1011.5 |
| 20260503195936 | 78 | 68 | 1.0 | 7.0 | 0.00 | 0.00 | 0.00 | 44 | 1011.5 |
| 20260503195434 | 78 | 278 | 3.0 | 6.0 | 0.00 | 0.00 | 0.00 | 42 | 1011.5 |
| 20260503194934 | 77 | 273 | 2.0 | 7.0 | 0.00 | 0.00 | 0.00 | 43 | 1011.9 |
| 20260503194433 | 77 | 22 | 2.0 | 7.0 | 0.00 | 0.00 | 0.00 | 43 | 1011.9 |
| 20260503193932 | 77 | 332 | 2.0 | 7.0 | 0.00 | 0.00 | 0.00 | 44 | 1011.9 |
| 20260503193431 | 77 | 9 | 3.0 | 7.0 | 0.00 | 0.00 | 0.00 | 43 | 1011.9 |
| 20260503192931 | 77 | 263 | 1.0 | 7.0 | 0.00 | 0.00 | 0.00 | 44 | 1011.9 |
| 20260503192430 | 77 | 28 | 2.0 | 7.0 | 0.00 | 0.00 | 0.00 | 43 | 1012.2 |
| 20260503191929 | 76 | 275 | 3.0 | 7.0 | 0.00 | 0.00 | 0.00 | 44 | 1012.2 |
| 20260503191356 | 76 | 268 | 2.0 | 5.0 | 0.00 | 0.00 | 0.00 | 45 | 1012.2 |
| 20260503190856 | 76 | 274 | 3.0 | 5.0 | 0.00 | 0.00 | 0.00 | 45 | 1012.2 |
| 20260503190355 | 75 | 3 | 2.0 | 5.0 | 0.00 | 0.00 | 0.00 | 45 | 1012.2 |
| 20260503185854 | 75 | 274 | 1.0 | 6.0 | 0.00 | 0.00 | 0.00 | 46 | 1012.2 |
| 20260503185353 | 74 | 20 | 2.0 | 6.0 | 0.00 | 0.00 | 0.00 | 48 | 1012.5 |
| 20260503184851 | 74 | 39 | 2.0 | 6.0 | 0.00 | 0.00 | 0.00 | 50 | 1012.5 |
| 20260503184350 | 73 | 38 | 3.0 | 6.0 | 0.00 | 0.00 | 0.00 | 50 | 1012.5 |
| 20260503183850 | 74 | 38 | 4.0 | 5.0 | 0.00 | 0.00 | 0.00 | 49 | 1012.5 |
| 20260503183318 | 74 | 32 | 3.0 | 5.0 | 0.00 | 0.00 | 0.00 | 48 | 1012.5 |
| 20260503182817 | 74 | 325 | 2.0 | 5.0 | 0.00 | 0.00 | 0.00 | 49 | 1012.5 |
| 20260503182244 | 73 | 19 | 2.0 | 6.0 | 0.00 | 0.00 | 0.00 | 50 | 1012.5 |
| 20260503181712 | 73 | 36 | 3.0 | 6.0 | 0.00 | 0.00 | 0.00 | 49 | 1012.5 |
| 20260503181211 | 73 | 24 | 3.0 | 6.0 | 0.00 | 0.00 | 0.00 | 50 | 1012.9 |
| 20260503180710 | 72 | 30 | 3.0 | 6.0 | 0.00 | 0.00 | 0.00 | 49 | 1012.9 |
| 20260503180209 | 72 | 33 | 4.0 | 6.0 | 0.00 | 0.00 | 0.00 | 50 | 1012.9 |
| 20260503175708 | 72 | 35 | 4.0 | 6.0 | 0.00 | 0.00 | 0.00 | 49 | 1012.9 |
| 20260503175207 | 72 | 38 | 2.0 | 6.0 | 0.00 | 0.00 | 0.00 | 50 | 1012.9 |
| 20260503174706 | 72 | 32 | 2.0 | 6.0 | 0.00 | 0.00 | 0.00 | 50 | 1012.9 |
| 20260503174206 | 71 | 41 | 3.0 | 6.0 | 0.00 | 0.00 | 0.00 | 51 | 1012.9 |
| 20260503173705 | 71 | 36 | 4.0 | 6.0 | 0.00 | 0.00 | 0.00 | 51 | 1012.9 |
| 20260503173204 | 71 | 38 | 5.0 | 6.0 | 0.00 | 0.00 | 0.00 | 51 | 1012.9 |
| 20260503172633 | 71 | 41 | 2.0 | 4.0 | 0.00 | 0.00 | 0.00 | 54 | 1012.9 |
| 20260503172131 | 70 | 40 | 2.0 | 4.0 | 0.00 | 0.00 | 0.00 | 56 | 1013.2 |
| 20260503171630 | 70 | 24 | 2.0 | 4.0 | 0.00 | 0.00 | 0.00 | 55 | 1013.2 |
| 20260503171129 | 69 | 31 | 2.0 | 4.0 | 0.00 | 0.00 | 0.00 | 56 | 1013.2 |
| 20260503170629 | 69 | 44 | 3.0 | 4.0 | 0.00 | 0.00 | 0.00 | 55 | 1013.2 |
| 20260503170128 | 69 | 33 | 3.0 | 4.0 | 0.00 | 0.00 | 0.00 | 58 | 1013.2 |
| 20260503151007 | 59 | 240 | 0.0 | 0.0 | 0.00 | 0.00 | 0.00 | 75 | 1013.5 |
| 20260503150435 | 58 | 240 | 0.0 | 0.0 | 0.00 | 0.00 | 0.00 | 78 | 1013.5 |
| 20260503140218 | 50 | 240 | 0.0 | 0.0 | 0.00 | 0.00 | 0.00 | 87 | 1013.5 |
| 20260503131138 | 49 | 240 | 0.0 | 0.0 | 0.00 | 0.00 | 0.00 | 87 | 1013.2 |
| 20260503130638 | 49 | 240 | 0.0 | 0.0 | 0.00 | 0.00 | 0.00 | 87 | 1013.2 |
| 20260503130136 | 49 | 240 | 0.0 | 0.0 | 0.00 | 0.00 | 0.00 | 87 | 1013.2 |
| 20260503120127 | 50 | 240 | 0.0 | 0.0 | 0.00 | 0.00 | 0.00 | 86 | 1013.5 |
| 20260503110445 | 50 | 240 | 0.0 | 0.0 | 0.00 | 0.00 | 0.00 | 84 | 1013.5 |
| 20260503090120 | 52 | 240 | 0.0 | 0.0 | 0.00 | 0.00 | 0.00 | 82 | 1013.5 |
| 20260503081507 | 54 | 240 | 0.0 | 0.0 | 0.00 | 0.00 | 0.00 | 79 | 1013.5 |
| 20260503081006 | 54 | 240 | 0.0 | 0.0 | 0.00 | 0.00 | 0.00 | 80 | 1013.5 |
| 20260503080434 | 54 | 240 | 0.0 | 0.0 | 0.00 | 0.00 | 0.00 | 80 | 1013.5 |
| 20260503072928 | 55 | 240 | 0.0 | 0.0 | 0.00 | 0.00 | 0.00 | 78 | 1013.5 |
| 20260503072427 | 55 | 240 | 0.0 | 0.0 | 0.00 | 0.00 | 0.00 | 77 | 1013.5 |
| 20260503071921 | 55 | 240 | 0.0 | 0.0 | 0.00 | 0.00 | 0.00 | 77 | 1013.5 |
| 20260503071420 | 55 | 240 | 0.0 | 0.0 | 0.00 | 0.00 | 0.00 | 77 | 1013.5 |
| 20260503070919 | 56 | 240 | 0.0 | 0.0 | 0.00 | 0.00 | 0.00 | 77 | 1013.5 |
| 20260503070418 | 56 | 240 | 0.0 | 0.0 | 0.00 | 0.00 | 0.00 | 76 | 1013.5 |
| 20260503054823 | 59 | 240 | 0.0 | 0.0 | 0.00 | 0.00 | 0.00 | 71 | 1013.2 |
| 20260503054323 | 59 | 240 | 0.0 | 0.0 | 0.00 | 0.00 | 0.00 | 70 | 1013.2 |
| 20260503053750 | 59 | 240 | 0.0 | 0.0 | 0.00 | 0.00 | 0.00 | 69 | 1013.5 |
| 20260503053250 | 59 | 240 | 0.0 | 0.0 | 0.00 | 0.00 | 0.00 | 69 | 1013.2 |
| 20260503052748 | 60 | 240 | 0.0 | 0.0 | 0.00 | 0.00 | 0.00 | 68 | 1013.2 |
| 20260503052217 | 60 | 240 | 0.0 | 0.0 | 0.00 | 0.00 | 0.00 | 68 | 1013.5 |
| 20260503051715 | 60 | 240 | 0.0 | 0.0 | 0.00 | 0.00 | 0.00 | 67 | 1013.2 |
| 20260503051215 | 61 | 240 | 0.0 | 0.0 | 0.00 | 0.00 | 0.00 | 66 | 1013.5 |
| 20260503050714 | 61 | 240 | 0.0 | 0.0 | 0.00 | 0.00 | 0.00 | 65 | 1013.2 |
| 20260503050213 | 61 | 240 | 0.0 | 0.0 | 0.00 | 0.00 | 0.00 | 65 | 1013.2 |
| 20260503045711 | 62 | 240 | 0.0 | 0.0 | 0.00 | 0.00 | 0.00 | 64 | 1013.2 |
| 20260503045210 | 62 | 240 | 0.0 | 0.0 | 0.00 | 0.00 | 0.00 | 64 | 1013.2 |
| 20260503044710 | 63 | 240 | 0.0 | 0.0 | 0.00 | 0.00 | 0.00 | 64 | 1013.2 |
| 20260503044138 | 63 | 240 | 0.0 | 0.0 | 0.00 | 0.00 | 0.00 | 61 | 1013.2 |
| 20260503043637 | 63 | 240 | 0.0 | 0.0 | 0.00 | 0.00 | 0.00 | 60 | 1013.2 |
| 20260503043137 | 64 | 240 | 0.0 | 0.0 | 0.00 | 0.00 | 0.00 | 59 | 1013.2 |
| 20260503042636 | 64 | 240 | 0.0 | 1.0 | 0.00 | 0.00 | 0.00 | 58 | 1013.2 |
| 20260503042135 | 64 | 240 | 0.0 | 1.0 | 0.00 | 0.00 | 0.00 | 57 | 1012.9 |
| 20260503041635 | 64 | 240 | 0.0 | 1.0 | 0.00 | 0.00 | 0.00 | 57 | 1012.9 |
| 20260503041134 | 65 | 240 | 0.0 | 1.0 | 0.00 | 0.00 | 0.00 | 57 | 1012.9 |
| 20260503040632 | 65 | 240 | 0.0 | 0.0 | 0.00 | 0.00 | 0.00 | 57 | 1012.9 |
| 20260503040132 | 65 | 240 | 0.0 | 0.0 | 0.00 | 0.00 | 0.00 | 58 | 1012.9 |
| 20260503035559 | 66 | 240 | 0.0 | 0.0 | 0.00 | 0.00 | 0.00 | 57 | 1012.5 |
| 20260503035027 | 66 | 240 | 0.0 | 1.0 | 0.00 | 0.00 | 0.00 | 57 | 1012.5 |
| 20260503034526 | 66 | 240 | 0.0 | 1.0 | 0.00 | 0.00 | 0.00 | 57 | 1012.5 |
| 20260503034026 | 67 | 240 | 0.0 | 1.0 | 0.00 | 0.00 | 0.00 | 56 | 1012.5 |
| 20260503033524 | 67 | 240 | 0.0 | 2.0 | 0.00 | 0.00 | 0.00 | 56 | 1012.2 |
| 20260503033024 | 67 | 240 | 0.0 | 2.0 | 0.00 | 0.00 | 0.00 | 56 | 1012.2 |
| 20260503032523 | 68 | 240 | 0.0 | 2.0 | 0.00 | 0.00 | 0.00 | 55 | 1012.2 |
| 20260503032022 | 68 | 236 | 1.0 | 2.0 | 0.00 | 0.00 | 0.00 | 54 | 1012.2 |
| 20260503031521 | 69 | 274 | 0.0 | 2.0 | 0.00 | 0.00 | 0.00 | 53 | 1012.2 |
| 20260503031020 | 69 | 274 | 0.0 | 2.0 | 0.00 | 0.00 | 0.00 | 53 | 1012.2 |
| 20260503030448 | 70 | 274 | 0.0 | 3.0 | 0.00 | 0.00 | 0.00 | 51 | 1012.2 |
| 20260503025916 | 70 | 274 | 0.0 | 6.0 | 0.00 | 0.00 | 0.00 | 49 | 1012.2 |
| 20260503025416 | 71 | 298 | 1.0 | 6.0 | 0.00 | 0.00 | 0.00 | 48 | 1011.9 |
| 20260503024914 | 72 | 273 | 2.0 | 6.0 | 0.00 | 0.00 | 0.00 | 48 | 1011.9 |
| 20260503024413 | 72 | 263 | 2.0 | 6.0 | 0.00 | 0.00 | 0.00 | 47 | 1011.9 |
| 20260503023913 | 72 | 339 | 0.0 | 6.0 | 0.00 | 0.00 | 0.00 | 48 | 1011.9 |
| 20260503023412 | 73 | 34 | 0.0 | 7.0 | 0.00 | 0.00 | 0.00 | 47 | 1011.9 |
| 20260503022911 | 73 | 279 | 3.0 | 7.0 | 0.00 | 0.00 | 0.00 | 47 | 1011.9 |
| 20260503022410 | 73 | 271 | 4.0 | 7.0 | 0.00 | 0.00 | 0.00 | 46 | 1011.9 |
| 20260503021909 | 74 | 288 | 4.0 | 7.0 | 0.00 | 0.00 | 0.00 | 47 | 1011.9 |
| 20260503021409 | 74 | 278 | 2.0 | 4.0 | 0.00 | 0.00 | 0.00 | 47 | 1011.9 |
| 20260503020908 | 74 | 316 | 2.0 | 6.0 | 0.00 | 0.00 | 0.00 | 47 | 1011.9 |
| 20260503020407 | 74 | 32 | 0.0 | 6.0 | 0.00 | 0.00 | 0.00 | 48 | 1011.9 |
| 20260503015906 | 74 | 34 | 1.0 | 6.0 | 0.00 | 0.00 | 0.00 | 47 | 1011.9 |
| 20260503015334 | 74 | 292 | 2.0 | 6.0 | 0.00 | 0.00 | 0.00 | 48 | 1011.9 |
| 20260503014802 | 74 | 293 | 2.0 | 5.0 | 0.00 | 0.00 | 0.00 | 48 | 1011.9 |
| 20260503014300 | 74 | 280 | 3.0 | 5.0 | 0.00 | 0.00 | 0.00 | 48 | 1011.9 |
| 20260503013759 | 74 | 66 | 0.0 | 6.0 | 0.00 | 0.00 | 0.00 | 49 | 1011.9 |
| 20260503013227 | 74 | 9 | 3.0 | 10.0 | 0.00 | 0.00 | 0.00 | 49 | 1011.9 |
| 20260503012655 | 75 | 277 | 3.0 | 10.0 | 0.00 | 0.00 | 0.00 | 48 | 1011.9 |
| 20260503012155 | 75 | 282 | 3.0 | 10.0 | 0.00 | 0.00 | 0.00 | 49 | 1011.9 |
| 20260503011654 | 74 | 290 | 4.0 | 8.0 | 0.00 | 0.00 | 0.00 | 49 | 1011.9 |
| 20260503011154 | 74 | 48 | 0.0 | 8.0 | 0.00 | 0.00 | 0.00 | 50 | 1011.9 |
| 20260503010622 | 75 | 6 | 1.0 | 8.0 | 0.00 | 0.00 | 0.00 | 50 | 1011.9 |
| 20260503010120 | 75 | 258 | 2.0 | 5.0 | 0.00 | 0.00 | 0.00 | 50 | 1011.9 |
| 20260503005619 | 74 | 281 | 3.0 | 7.0 | 0.00 | 0.00 | 0.00 | 50 | 1011.9 |
| 20260503005119 | 75 | 13 | 2.0 | 7.0 | 0.00 | 0.00 | 0.00 | 50 | 1012.2 |
| 20260503004618 | 74 | 357 | 2.0 | 7.0 | 0.00 | 0.00 | 0.00 | 50 | 1012.2 |
| 20260503004046 | 75 | 275 | 3.0 | 7.0 | 0.00 | 0.00 | 0.00 | 49 | 1012.2 |
| 20260503003545 | 75 | 281 | 3.0 | 8.0 | 0.00 | 0.00 | 0.00 | 49 | 1012.2 |
| 20260503003045 | 75 | 278 | 2.0 | 8.0 | 0.00 | 0.00 | 0.00 | 49 | 1012.2 |
| 20260503002544 | 75 | 263 | 2.0 | 8.0 | 0.00 | 0.00 | 0.00 | 49 | 1012.2 |
| 20260503002044 | 75 | 260 | 2.0 | 8.0 | 0.00 | 0.00 | 0.00 | 49 | 1012.2 |
| 20260503001543 | 75 | 264 | 2.0 | 6.0 | 0.00 | 0.00 | 0.00 | 49 | 1012.2 |
| 20260503001042 | 75 | 333 | 2.0 | 7.0 | 0.00 | 0.00 | 0.00 | 49 | 1012.2 |
| 20260503000541 | 75 | 343 | 2.0 | 7.0 | 0.00 | 0.00 | 0.00 | 48 | 1012.2 |
| 20260503000040 | 75 | 274 | 3.0 | 7.0 | 0.00 | 0.00 | 0.00 | 47 | 1012.2 |
| 20260502235539 | 75 | 331 | 3.0 | 7.0 | 0.00 | 0.00 | 0.00 | 48 | 1012.2 |
| 20260502235008 | 75 | 305 | 3.0 | 8.0 | 0.00 | 0.00 | 0.00 | 48 | 1012.2 |
| 20260502234436 | 75 | 13 | 1.0 | 8.0 | 0.00 | 0.00 | 0.00 | 49 | 1012.5 |
| 20260502233904 | 74 | 351 | 2.0 | 8.0 | 0.00 | 0.00 | 0.00 | 49 | 1012.5 |
| 20260502233403 | 74 | 288 | 4.0 | 8.0 | 0.00 | 0.00 | 0.00 | 50 | 1012.5 |
| 20260502232903 | 74 | 9 | 2.0 | 9.0 | 0.00 | 0.00 | 0.00 | 49 | 1012.5 |
| 20260502232402 | 74 | 352 | 2.0 | 9.0 | 0.00 | 0.00 | 0.00 | 49 | 1012.9 |
| 20260502231901 | 75 | 348 | 3.0 | 9.0 | 0.00 | 0.00 | 0.00 | 49 | 1012.9 |
| 20260502231400 | 75 | 291 | 2.0 | 9.0 | 0.00 | 0.00 | 0.00 | 50 | 1012.9 |
| 20260502230859 | 75 | 326 | 2.0 | 12.0 | 0.00 | 0.00 | 0.00 | 50 | 1012.9 |
| 20260502230358 | 75 | 299 | 2.0 | 12.0 | 0.00 | 0.00 | 0.00 | 50 | 1013.2 |
| 20260502225857 | 75 | 286 | 3.0 | 12.0 | 0.00 | 0.00 | 0.00 | 49 | 1013.2 |
| 20260502225356 | 75 | 273 | 5.0 | 12.0 | 0.00 | 0.00 | 0.00 | 48 | 1013.2 |
| 20260502224855 | 75 | 295 | 3.0 | 7.0 | 0.00 | 0.00 | 0.00 | 48 | 1013.2 |
| 20260502224323 | 75 | 282 | 3.0 | 7.0 | 0.00 | 0.00 | 0.00 | 48 | 1013.2 |
| 20260502223822 | 74 | 301 | 2.0 | 7.0 | 0.00 | 0.00 | 0.00 | 48 | 1013.2 |
| 20260502223250 | 74 | 44 | 2.0 | 7.0 | 0.00 | 0.00 | 0.00 | 48 | 1013.2 |
| 20260502222749 | 74 | 356 | 3.0 | 7.0 | 0.00 | 0.00 | 0.00 | 48 | 1013.5 |
| 20260502222247 | 74 | 16 | 3.0 | 7.0 | 0.00 | 0.00 | 0.00 | 48 | 1013.5 |
| 20260502221747 | 74 | 302 | 3.0 | 7.0 | 0.00 | 0.00 | 0.00 | 47 | 1013.5 |
| 20260502221246 | 74 | 274 | 4.0 | 7.0 | 0.00 | 0.00 | 0.00 | 47 | 1013.5 |
| 20260502220746 | 74 | 348 | 1.0 | 7.0 | 0.00 | 0.00 | 0.00 | 49 | 1013.5 |